Location: Cortada Guamacho
(10.5667°N, 67.0833°W)
Time: 06:58:20
(UTC+00:00)

Cosmos 2228 Rocket - Pass Details

Date: 07 July 2022
Orbit: 618 x 651 km, 82.5° (Epoch: 12 August)

Event Time Altitude Azimuth Distance (km) Brightness Sun altitude
Rises 08:49:34 0° 328° (NNW) 2,925 6.5 -19.1°
Reaches altitude 10° 08:52:30 10° 307° (NW) 2,024 5.5 -18.4°
Enters shadow 08:52:34 10° 307° (NW) 2,009 5.4 -18.4°
